EW7146 Weather Reports


time (UTC)temp
C
wind
direction
speed
KPH
gust
KPH
rain 1hr
cm
rain 24hr
cm
rain mn
cm
humidity
%
barometer
mb
20260901000931 26 116 4.8 17.7 0.00 0.00 0.00 31 1023.1
20260901000652 26 80 6.4 17.7 0.00 0.00 0.00 31 1023.1
20260831235934 26 90 6.4 16.1 0.00 0.00 0.00 30 1023.3
20260831235428 26 65 4.8 16.1 0.00 0.00 0.00 31 1023.3
20260831234924 26 137 8.0 16.1 0.00 0.00 0.00 31 1023.3
20260831234424 26 80 3.2 16.1 0.00 0.00 0.00 32 1023.3
20260831233926 26 94 4.8 14.5 0.00 0.00 0.00 32 1023.4
20260831233430 26 62 8.0 14.5 0.00 0.00 0.00 32 1023.5
20260831232928 26 86 6.4 16.1 0.00 0.00 0.00 32 1023.5
20260831232429 26 92 6.4 16.1 0.00 0.00 0.00 32 1023.6
20260831231928 26 66 4.8 16.1 0.00 0.00 0.00 32 1023.5
20260831231428 26 73 4.8 16.1 0.00 0.00 0.00 32 1023.6
20260831231154 26 63 4.8 14.5 0.00 0.00 0.00 32 1023.6
20260831230423 26 85 3.2 16.1 0.00 0.00 0.00 32 1023.7
20260831225925 26 68 3.2 16.1 0.00 0.00 0.00 32 1023.7
20260831225428 26 99 3.2 16.1 0.00 0.00 0.00 33 1023.9
20260831224929 26 86 4.8 19.3 0.00 0.00 0.00 32 1024.0
20260831224427 26 114 9.7 19.3 0.00 0.00 0.00 32 1024.0
20260831223928 26 86 4.8 17.7 0.00 0.00 0.00 33 1024.0
20260831223430 26 100 6.4 17.7 0.00 0.00 0.00 33 1024.1
20260831222932 26 107 1.6 20.9 0.00 0.00 0.00 32 1024.1
20260831222424 26 92 6.4 20.9 0.00 0.00 0.00 32 1024.2
20260831221922 25 138 4.8 14.5 0.00 0.00 0.00 33 1024.2
20260831221642 26 85 4.8 20.9 0.00 0.00 0.00 33 1024.5
20260831221525 25 71 4.8 14.5 0.00 0.00 0.00 32 1024.4
20260831220650 25 127 4.8 20.9 0.00 0.00 0.00 34 1024.6
20260831215926 25 133 3.2 9.7 0.00 0.00 0.00 33 1024.7
20260831215426 25 123 4.8 20.9 0.00 0.00 0.00 33 1024.7
20260831214925 25 79 8.0 20.9 0.00 0.00 0.00 34 1024.8
20260831214427 25 8 6.4 11.3 0.00 0.00 0.00 33 1024.9
20260831213925 25 55 6.4 14.5 0.00 0.00 0.00 35 1024.9
20260831213426 25 140 6.4 14.5 0.00 0.00 0.00 35 1025.0
20260831212923 25 54 3.2 17.7 0.00 0.00 0.00 35 1025.1
20260831212650 25 124 8.0 17.7 0.00 0.00 0.00 35 1025.1
20260831211927 24 130 9.7 16.1 0.00 0.00 0.00 35 1025.1
20260831211425 25 78 6.4 16.1 0.00 0.00 0.00 35 1025.2
20260831210926 25 89 4.8 9.7 0.00 0.00 0.00 35 1025.2
20260831210425 24 80 3.2 14.5 0.00 0.00 0.00 35 1025.3
20260831205931 24 78 6.4 14.5 0.00 0.00 0.00 36 1025.4
20260831205422 24 120 4.8 17.7 0.00 0.00 0.00 36 1025.5
20260831204921 24 52 6.4 17.7 0.00 0.00 0.00 36 1025.6
20260831204644 24 141 6.4 14.5 0.00 0.00 0.00 36 1025.6
20260831203924 24 78 3.2 14.5 0.00 0.00 0.00 36 1025.7
20260831203426 24 131 3.2 14.5 0.00 0.00 0.00 37 1026.0
20260831202925 23 55 6.4 11.3 0.00 0.00 0.00 38 1026.0
20260831202429 23 55 6.4 14.5 0.00 0.00 0.00 38 1026.0
20260831202150 23 127 4.8 14.5 0.00 0.00 0.00 39 1026.1
20260831201424 23 76 3.2 16.1 0.00 0.00 0.00 38 1026.2
20260831201150 23 76 6.4 17.7 0.00 0.00 0.00 38 1026.3
20260831200424 23 72 6.4 17.7 0.00 0.00 0.00 38 1026.3
20260831200144 23 82 4.8 19.3 0.00 0.00 0.00 39 1026.5
20260831195424 22 79 4.8 19.3 0.00 0.00 0.00 39 1026.6
20260831194925 23 142 6.4 17.7 0.00 0.00 0.00 40 1026.6
20260831194423 22 76 6.4 17.7 0.00 0.00 0.00 39 1026.7
20260831193923 22 66 8.0 20.9 0.00 0.00 0.00 39 1026.7
20260831193423 22 76 9.7 20.9 0.00 0.00 0.00 40 1026.8
20260831192923 22 52 6.4 16.1 0.00 0.00 0.00 41 1026.9
20260831192421 22 85 6.4 16.1 0.00 0.00 0.00 40 1027.1
20260831191920 22 69 4.8 20.9 0.00 0.00 0.00 41 1027.1
20260831191421 22 149 8.0 20.9 0.00 0.00 0.00 40 1027.1
20260831190923 22 66 8.0 19.3 0.00 0.00 0.00 41 1027.1
20260831190423 22 127 9.7 16.1 0.00 0.00 0.00 41 1027.2
20260831185928 22 48 4.8 14.5 0.00 0.00 0.00 43 1027.3
20260831185422 21 168 4.8 9.7 0.00 0.00 0.00 42 1027.5
20260831184929 21 207 6.4 14.5 0.00 0.00 0.00 44 1027.6
20260831184922 21 118 3.2 11.3 0.00 0.00 0.00 43 1027.5
20260831184422 21 42 4.8 14.5 0.00 0.00 0.00 43 1027.6
20260831183421 21 96 4.8 9.7 0.00 0.00 0.00 44 1027.8
20260831182920 20 32 3.2 8.0 0.00 0.00 0.00 45 1027.9
20260831182421 20 49 3.2 8.0 0.00 0.00 0.00 45 1027.9
20260831181922 20 133 4.8 8.0 0.00 0.00 0.00 46 1028.0
20260831181421 20 47 3.2 6.4 0.00 0.00 0.00 46 1028.0
20260831181145 20 76 1.6 6.4 0.00 0.00 0.00 48 1027.9
20260831180643 19 103 3.2 6.4 0.00 0.00 0.00 47 1028.0
20260831175921 19 116 3.2 6.4 0.00 0.00 0.00 48 1028.1
20260831175421 19 93 0.0 6.4 0.00 0.00 0.00 48 1028.1
20260831174920 18 73 1.6 6.4 0.00 0.00 0.00 48 1028.1
20260831174422 18 96 1.6 4.8 0.00 0.00 0.00 48 1028.3
20260831173921 18 56 1.6 4.8 0.00 0.00 0.00 49 1028.3
20260831173421 18 133 1.6 6.4 0.00 0.00 0.00 51 1028.3
20260831172920 18 145 1.6 6.4 0.00 0.00 0.00 51 1028.3
20260831172421 18 107 1.6 4.8 0.00 0.00 0.00 50 1028.3
20260831171921 18 38 0.0 4.8 0.00 0.00 0.00 52 1028.4
20260831171419 18 49 0.0 3.2 0.00 0.00 0.00 52 1028.5
20260831170921 17 173 0.0 3.2 0.00 0.00 0.00 52 1028.5
20260831170645 17 272 0.0 0.0 0.00 0.00 0.00 54 1028.5
20260831165920 16 262 0.0 0.0 0.00 0.00 0.00 55 1028.5
20260831165419 16 39 0.0 0.0 0.00 0.00 0.00 55 1028.6
20260831164919 16 63 0.0 0.0 0.00 0.00 0.00 55 1028.7
20260831164419 16 243 0.0 1.6 0.00 0.00 0.00 59 1028.7
20260831164139 16 241 0.0 1.6 0.00 0.00 0.00 61 1028.8
20260831162919 15 353 0.0 0.0 0.00 0.00 0.00 62 1028.9
20260831162420 15 72 0.0 3.2 0.00 0.00 0.00 62 1029.1
20260831161919 14 354 1.6 3.2 0.00 0.00 0.00 63 1029.1
20260831161420 14 18 0.0 1.6 0.00 0.00 0.00 65 1029.2
20260831160918 13 348 0.0 3.2 0.00 0.00 0.00 65 1029.2
20260831160423 13 4 0.0 3.2 0.00 0.00 0.00 68 1029.3
20260831155918 13 24 0.0 1.6 0.00 0.00 0.00 68 1029.3
20260831155417 13 240 0.0 1.6 0.00 0.00 0.00 69 1029.3
20260831154919 12 1 0.0 0.0 0.00 0.00 0.00 73 1029.3
20260831154418 12 1 0.0 0.0 0.00 0.00 0.00 72 1029.4
20260831153919 12 329 0.0 0.0 0.00 0.00 0.00 73 1029.4
20260831153417 12 324 0.0 0.0 0.00 0.00 0.00 74 1029.4
20260831153145 11 324 0.0 0.0 0.00 0.00 0.00 75 1029.6
20260831152418 11 305 0.0 0.0 0.00 0.00 0.00 76 1029.5
20260831152146 11 283 0.0 0.0 0.00 0.00 0.00 77 1029.5
20260831151418 10 261 0.0 0.0 0.00 0.00 0.00 81 1029.5
20260831150917 10 261 0.0 0.0 0.00 0.00 0.00 82 1029.5
20260831150418 10 259 0.0 0.0 0.00 0.00 0.00 82 1029.6
20260831145916 10 261 0.0 0.0 0.00 0.00 0.00 83 1029.6
20260831145418 9 261 0.0 0.0 0.00 0.00 0.00 86 1029.6
20260831144917 8 261 0.0 0.0 0.00 0.00 0.00 88 1029.5
20260831144416 8 261 0.0 0.0 0.00 0.00 0.00 89 1029.5
20260831143916 7 261 0.0 0.0 0.00 0.00 0.00 90 1029.4
20260831143636 7 259 0.0 0.0 0.00 0.00 0.00 90 1029.4
20260831143139 7 259 0.0 0.0 0.00 0.00 0.00 90 1029.4
20260831142645 7 259 0.0 0.0 0.00 0.00 0.00 90 1029.4
20260831141917 6 261 0.0 0.0 0.00 0.00 0.00 90 1029.4
20260831141416 6 261 0.0 0.0 0.00 0.00 0.00 91 1029.4
20260831141139 6 261 0.0 0.0 0.00 0.00 0.00 91 1029.3
20260831140415 6 261 0.0 0.0 0.00 0.00 0.00 91 1029.3
20260831135915 6 276 0.0 0.0 0.00 0.00 0.00 91 1029.3
20260831135635 6 276 0.0 0.0 0.00 0.00 0.00 91 1029.3
20260831134915 6 234 0.0 0.0 0.00 0.00 0.00 91 1029.2
20260831134416 6 233 0.0 0.0 0.00 0.00 0.00 91 1029.2
20260831133915 6 234 0.0 0.0 0.00 0.00 0.00 91 1029.1
20260831133417 6 234 0.0 0.0 0.00 0.00 0.00 90 1028.9
20260831132914 6 234 0.0 0.0 0.00 0.00 0.00 90 1028.9
20260831132416 6 234 0.0 0.0 0.00 0.00 0.00 90 1028.9
20260831131914 6 234 0.0 0.0 0.00 0.00 0.00 89 1028.9
20260831131653 6 233 0.0 0.0 0.00 0.00 0.00 88 1028.8
20260831131136 6 234 0.0 0.0 0.00 0.00 0.00 88 1028.9
20260831130414 6 233 0.0 0.0 0.00 0.00 0.00 89 1028.9
20260831125914 6 234 0.0 0.0 0.00 0.00 0.00 89 1028.9
20260831125415 6 217 0.0 0.0 0.00 0.00 0.00 88 1028.9
20260831125406 6 217 0.0 0.0 0.00 0.00 0.00 87 1028.9
20260831124413 6 217 0.0 0.0 0.00 0.00 0.00 88 1028.8
20260831123915 6 217 0.0 0.0 0.00 0.00 0.00 89 1028.8
20260831123413 6 217 0.0 0.0 0.00 0.00 0.00 89 1028.8
20260831122913 6 224 0.0 0.0 0.00 0.00 0.00 88 1028.7
20260831122644 6 224 0.0 0.0 0.00 0.00 0.00 87 1028.8
20260831121913 7 224 0.0 0.0 0.00 0.00 0.00 87 1028.8
20260831121630 7 224 0.0 0.0 0.00 0.00 0.00 87 1028.8
20260831120913 7 224 0.0 0.0 0.00 0.00 0.00 86 1028.8
20260831120414 7 224 0.0 0.0 0.00 0.00 0.00 86 1028.8
20260831120132 7 224 0.0 0.0 0.00 0.00 0.00 86 1028.8
20260831115415 7 224 0.0 0.0 0.00 0.00 0.00 86 1028.8
20260831114913 7 224 0.0 0.0 0.00 0.00 0.00 86 1028.7
20260831114413 7 224 0.0 0.0 0.00 0.00 0.00 85 1028.8
20260831113912 7 224 0.0 0.0 0.00 0.00 0.00 85 1028.8
20260831113412 7 224 0.0 0.0 0.00 0.00 0.00 84 1028.7
20260831112913 7 224 0.0 0.0 0.00 0.00 0.00 84 1028.9
20260831112412 8 224 0.0 0.0 0.00 0.00 0.00 82 1028.9
20260831112402 8 224 0.0 0.0 0.00 0.00 0.00 81 1029.1
20260831111413 8 224 0.0 0.0 0.00 0.00 0.00 82 1029.1
20260831110913 8 224 0.0 0.0 0.00 0.00 0.00 82 1028.9
20260831110633 8 227 0.0 0.0 0.00 0.00 0.00 82 1029.1
20260831105911 8 216 0.0 0.0 0.00 0.00 0.00 81 1029.1
20260831105412 8 209 0.0 0.0 0.00 0.00 0.00 81 1029.1
20260831104912 8 209 0.0 0.0 0.00 0.00 0.00 81 1029.1
20260831104635 8 209 0.0 0.0 0.00 0.00 0.00 81 1028.9
20260831103911 8 209 0.0 0.0 0.00 0.00 0.00 81 1028.9
20260831103412 8 209 0.0 0.0 0.00 0.00 0.00 81 1028.9
20260831102910 8 209 0.0 0.0 0.00 0.00 0.00 81 1028.9
20260831102412 8 209 0.0 0.0 0.00 0.00 0.00 81 1028.8
20260831101910 8 209 0.0 0.0 0.00 0.00 0.00 80 1028.7
20260831101410 9 209 0.0 0.0 0.00 0.00 0.00 79 1028.7
20260831100910 9 209 0.0 0.0 0.00 0.00 0.00 78 1028.8
20260831100411 9 209 0.0 0.0 0.00 0.00 0.00 78 1028.6
20260831095911 9 209 0.0 0.0 0.00 0.00 0.00 79 1028.7
20260831095410 9 207 0.0 0.0 0.00 0.00 0.00 79 1028.7
20260831094911 9 207 0.0 0.0 0.00 0.00 0.00 78 1028.7
20260831094635 9 207 0.0 0.0 0.00 0.00 0.00 78 1028.8
20260831093910 10 207 0.0 0.0 0.00 0.00 0.00 78 1028.7
20260831093409 10 209 0.0 0.0 0.00 0.00 0.00 77 1028.7
20260831093139 10 206 0.0 0.0 0.00 0.00 0.00 76 1028.7
20260831092410 10 219 0.0 0.0 0.00 0.00 0.00 76 1028.8
20260831091909 10 199 0.0 0.0 0.00 0.00 0.00 75 1028.7
20260831091410 10 199 0.0 0.0 0.00 0.00 0.00 74 1028.8
20260831090908 10 207 0.0 0.0 0.00 0.00 0.00 74 1028.7
20260831090410 10 234 0.0 0.0 0.00 0.00 0.00 74 1028.7
20260831085909 10 199 0.0 0.0 0.00 0.00 0.00 74 1028.8
20260831085410 10 195 0.0 0.0 0.00 0.00 0.00 73 1028.7
20260831085129 11 206 0.0 0.0 0.00 0.00 0.00 73 1028.7
20260831084408 11 216 0.0 0.0 0.00 0.00 0.00 72 1028.7
20260831083909 11 202 0.0 0.0 0.00 0.00 0.00 72 1028.7
20260831083408 11 190 0.0 1.6 0.00 0.00 0.00 72 1028.7
20260831083127 11 230 0.0 3.2 0.00 0.00 0.00 72 1028.8
20260831082407 11 200 1.6 3.2 0.00 0.00 0.00 72 1028.8
20260831081906 11 176 0.0 0.0 0.00 0.00 0.00 71 1028.8
20260831081258 11 169 0.0 1.6 0.00 0.00 0.00 71 1028.7
20260831080757 11 199 0.0 3.2 0.00 0.00 0.00 71 1028.7
20260831080258 11 188 0.0 3.2 0.00 0.00 0.00 71 1028.7
20260831080243 11 175 0.0 0.0 0.00 0.00 0.00 70 1028.7
20260831075258 11 216 0.0 0.0 0.00 0.00 0.00 70 1028.7
20260831075016 12 131 0.0 0.0 0.00 0.00 0.00 66 1028.6
20260831074902 12 134 0.0 0.0 0.00 0.00 0.00 68 1028.7
20260831074016 13 152 0.0 3.2 0.00 0.00 0.00 66 1028.7
20260831073256 13 240 0.0 6.4 0.00 0.00 0.00 65 1028.7
20260831072757 13 244 0.0 6.4 0.00 0.00 0.00 66 1028.7
20260831072514 12 223 0.0 0.0 0.00 0.00 0.00 67 1028.6
20260831071753 12 203 0.0 0.0 0.00 0.00 0.00 67 1028.5
20260831071258 12 158 0.0 0.0 0.00 0.00 0.00 66 1028.5
20260831070758 13 138 0.0 0.0 0.00 0.00 0.00 65 1028.5
20260831070258 13 216 0.0 0.0 0.00 0.00 0.00 64 1028.5
20260831065756 14 164 0.0 0.0 0.00 0.00 0.00 62 1028.5
20260831065256 14 65 0.0 0.0 0.00 0.00 0.00 61 1028.7
20260831064801 14 65 0.0 0.0 0.00 0.00 0.00 60 1028.6
20260831064256 15 65 0.0 1.6 0.00 0.00 0.00 59 1028.6
20260831063756 15 25 0.0 3.2 0.00 0.00 0.00 58 1028.6
20260831063255 15 293 0.0 9.7 0.00 0.00 0.00 57 1028.5
20260831062757 16 288 1.6 9.7 0.00 0.00 0.00 56 1028.6
20260831062255 16 298 1.6 8.0 0.00 0.00 0.00 56 1028.5
20260831062019 16 272 1.6 8.0 0.00 0.00 0.00 56 1028.4
20260831061255 16 250 3.2 8.0 0.00 0.00 0.00 56 1028.5
20260831060754 16 278 3.2 8.0 0.00 0.00 0.00 56 1028.6
20260831060255 16 257 1.6 11.3 0.00 0.00 0.00 56 1028.6
20260831055754 16 289 3.2 11.3 0.00 0.00 0.00 56 1028.5
20260831055253 16 275 1.6 8.0 0.00 0.00 0.00 56 1028.5
20260831054751 16 238 0.0 8.0 0.00 0.00 0.00 56 1028.5
20260831054256 16 286 0.0 8.0 0.00 0.00 0.00 56 1028.5
20260831053755 16 336 0.0 8.0 0.00 0.00 0.00 55 1028.6
20260831053255 16 293 0.0 4.8 0.00 0.00 0.00 55 1028.5
20260831052755 16 290 0.0 6.4 0.00 0.00 0.00 55 1028.5
20260831052253 16 250 1.6 6.4 0.00 0.00 0.00 55 1028.5
20260831051754 16 243 0.0 4.8 0.00 0.00 0.00 55 1028.5
20260831051253 16 293 0.0 3.2 0.00 0.00 0.00 55 1028.5
20260831050756 16 300 0.0 11.3 0.00 0.00 0.00 54 1028.5
20260831050255 16 306 1.6 11.3 0.00 0.00 0.00 54 1028.5
20260831045755 16 272 0.0 14.5 0.00 0.00 0.00 54 1028.4
20260831045254 16 258 0.0 14.5 0.00 0.00 0.00 54 1028.3
20260831044753 17 293 1.6 8.0 0.00 0.00 0.00 53 1028.4
20260831044253 17 309 1.6 8.0 0.00 0.00 0.00 53 1028.3
20260831043753 17 254 3.2 6.4 0.00 0.00 0.00 53 1028.3
20260831043516 17 296 3.2 8.0 0.00 0.00 0.00 53 1028.4
20260831042753 17 261 1.6 8.0 0.00 0.00 0.00 53 1028.4
20260831042250 17 292 0.0 4.8 0.00 0.00 0.00 54 1028.4
20260831042018 17 295 1.6 4.8 0.00 0.00 0.00 54 1028.3
20260831041927 17 306 1.6 4.8 0.00 0.00 0.00 54 1028.3
20260831041726 17 307 0.0 4.8 0.00 0.00 0.00 53 1028.3
20260831040252 17 244 0.0 3.2 0.00 0.00 0.00 53 1028.3
20260831035752 17 316 0.0 3.2 0.00 0.00 0.00 53 1028.2
20260831035511 17 289 1.6 6.4 0.00 0.00 0.00 53 1028.2
20260831035003 17 306 3.2 6.4 0.00 0.00 0.00 52 1028.1
20260831034842 17 309 1.6 6.4 0.00 0.00 0.00 53 1028.2
20260831033750 17 333 1.6 8.0 0.00 0.00 0.00 52 1027.9
20260831033252 17 306 3.2 8.0 0.00 0.00 0.00 52 1028.0
20260831032752 17 338 1.6 8.0 0.00 0.00 0.00 51 1027.8
20260831032252 17 296 1.6 8.0 0.00 0.00 0.00 51 1027.8
20260831031751 18 286 1.6 6.4 0.00 0.00 0.00 50 1027.9
20260831031251 18 296 1.6 11.3 0.00 0.00 0.00 50 1027.8
20260831030750 18 302 3.2 11.3 0.00 0.00 0.00 50 1027.7
20260831030251 18 299 1.6 6.4 0.00 0.00 0.00 50 1027.8
20260831025751 18 289 1.6 6.4 0.00 0.00 0.00 50 1027.7
20260831025249 18 331 1.6 16.1 0.00 0.00 0.00 50 1027.6
20260831024751 18 302 3.2 16.1 0.00 0.00 0.00 50 1027.6
20260831024729 18 282 3.2 11.3 0.00 0.00 0.00 50 1027.5
20260831024013 18 296 1.6 11.3 0.00 0.00 0.00 49 1027.5
20260831023250 18 275 3.2 11.3 0.00 0.00 0.00 49 1027.3
20260831022750 18 269 3.2 9.7 0.00 0.00 0.00 49 1027.3
20260831022249 18 309 4.8 8.0 0.00 0.00 0.00 48 1027.3
20260831021747 18 283 3.2 8.0 0.00 0.00 0.00 48 1027.3
20260831021246 19 305 3.2 11.3 0.00 0.00 0.00 48 1027.3
20260831020748 19 306 4.8 16.1 0.00 0.00 0.00 48 1027.2
20260831020512 19 310 4.8 16.1 0.00 0.00 0.00 48 1027.2
20260831015749 19 317 6.4 16.1 0.00 0.00 0.00 47 1027.3
20260831015249 19 312 4.8 16.1 0.00 0.00 0.00 47 1027.2
20260831014749 19 192 4.8 14.5 0.00 0.00 0.00 48 1027.3
20260831014246 20 300 3.2 9.7 0.00 0.00 0.00 47 1027.2
20260831014231 20 313 3.2 17.7 0.00 0.00 0.00 47 1027.1
20260831013506 20 262 4.8 19.3 0.00 0.00 0.00 46 1027.2
20260831012745 20 220 4.8 19.3 0.00 0.00 0.00 46 1027.1
20260831012247 20 257 6.4 24.1 0.00 0.00 0.00 46 1027.1
20260831011750 20 313 6.4 24.1 0.00 0.00 0.00 46 1027.2
20260831011248 20 299 6.4 16.1 0.00 0.00 0.00 45 1027.2
20260831010748 21 293 4.8 8.0 0.00 0.00 0.00 44 1027.1
20260831010248 21 330 3.2 17.7 0.00 0.00 0.00 43 1027.1
20260831005758 21 290 6.4 17.7 0.00 0.00 0.00 43 1027.0
20260831005507 21 283 6.4 19.3 0.00 0.00 0.00 43 1027.0
20260831004749 21 313 6.4 22.5 0.00 0.00 0.00 43 1026.9
20260831004253 21 237 6.4 22.5 0.00 0.00 0.00 43 1026.8
20260831003751 21 244 6.4 16.1 0.00 0.00 0.00 43 1026.7
20260831003248 21 279 4.8 11.3 0.00 0.00 0.00 43 1026.9
20260831002749 21 305 4.8 16.1 0.00 0.00 0.00 43 1027.0
20260831002247 21 285 6.4 16.1 0.00 0.00 0.00 42 1027.0
20260831001747 21 330 6.4 25.7 0.00 0.00 0.00 42 1026.9
20260831001247 22 274 8.0 25.7 0.00 0.00 0.00 41 1026.7